QPF
0.18 0.21 0.12 0.04 0.04 0.08 0.09 0.09 0.14 0.21 0.25 0.17 0.12 0.13 0.11 0.08 0.08 0.09 0.12 0.15 0.13 0.10 0.06 0.04 0.03 0.05 0.12 0.15 0.17 0.09 0.03 0.00 0.00 0.00 0.00 0.00 0.00 0.00 0.00 0.00 0.00 0.00 0.00
0.11 0.12 0.05 0.03 0.05 0.10 0.14 0.08 0.09 0.12 0.13 0.11 0.10 0.11 0.10 0.10 0.11 0.16 0.21 0.18 0.13 0.07 0.04 0.03 0.03 0.03 0.08 0.14 0.17 0.12 0.07 0.01 0.00 0.00 0.00 0.00 0.00 0.00 0.00 0.00 0.00 0.00 0.00
0.02 0.02 0.01 0.01 0.04 0.06 0.09 0.07 0.04 0.04 0.05 0.07 0.08 0.09 0.09 0.09 0.10 0.12 0.16 0.15 0.09 0.05 0.03 0.02 0.02 0.03 0.07 0.11 0.14 0.12 0.08 0.02 0.00 0.00 0.00 0.00 0.00 0.00 0.00 0.00 0.00 0.00 0.00
0.00 0.00 0.00 0.00 0.01 0.03 0.04 0.03 0.01 0.01 0.01 0.01 0.02 0.02 0.02 0.03 0.06 0.09 0.11 0.15 0.12 0.06 0.03 0.03 0.03 0.01 0.01 0.04 0.10 0.09 0.07 0.03 0.01 0.01 0.00 0.00 0.00 0.00 0.00 0.00 0.00 0.00 0.00
0.01 0.01 0.01 0.01 0.01 0.02 0.04 0.01 0.00 0.00 0.00 0.00 0.01 0.02 0.03 0.04 0.04 0.08 0.08 0.13 0.13 0.09 0.07 0.08 0.05 0.02 0.02 0.02 0.06 0.10 0.10 0.07 0.05 0.03 0.00 0.00 0.00 0.00 0.00 0.00 0.00 0.00 0.00
0.03 0.02 0.03 0.03 0.02 0.03 0.03 0.01 0.00 0.00 0.00 0.00 0.01 0.03 0.06 0.06 0.09 0.12 0.13 0.16 0.13 0.08 0.06 0.10 0.12 0.10 0.06 0.02 0.02 0.05 0.06 0.08 0.05 0.02 0.01 0.00 0.00 0.00 0.00 0.00 0.00 0.00 0.00
0.04 0.04 0.06 0.08 0.05 0.03 0.01 0.00 0.00 0.00 0.00 0.00 0.01 0.04 0.06 0.09 0.15 0.13 0.16 0.19 0.16 0.11 0.06 0.06 0.09 0.11 0.15 0.12 0.06 0.04 0.04 0.08 0.11 0.06 0.02 0.00 0.00 0.00 0.00 0.00 0.00 0.00 0.00
0.08 0.08 0.08 0.12 0.09 0.04 0.01 0.01 0.01 0.00 0.00 0.00 0.01 0.02 0.04 0.11 0.14 0.12 0.19 0.21 0.20 0.19 0.13 0.08 0.05 0.05 0.07 0.12 0.12 0.10 0.10 0.13 0.17 0.10 0.05 0.02 0.00 0.00 0.00 0.00 0.00 0.00 0.00
0.14 0.15 0.16 0.17 0.13 0.08 0.04 0.06 0.09 0.06 0.01 0.00 0.00 0.01 0.04 0.07 0.09 0.08 0.11 0.18 0.19 0.16 0.12 0.08 0.04 0.03 0.03 0.04 0.07 0.10 0.10 0.10 0.16 0.14 0.10 0.05 0.02 0.02 0.00 0.00 0.00 0.00 0.00
0.12 0.14 0.14 0.15 0.17 0.17 0.20 0.22 0.19 0.13 0.05 0.01 0.02 0.02 0.04 0.04 0.06 0.03 0.02 0.05 0.10 0.13 0.11 0.07 0.03 0.02 0.01 0.01 0.02 0.04 0.05 0.07 0.08 0.05 0.05 0.04 0.03 0.03 0.01 0.00 0.00 0.00 0.00
0.03 0.07 0.13 0.21 0.22 0.26 0.31 0.29 0.22 0.12 0.06 0.03 0.01 0.01 0.01 0.02 0.06 0.04 0.02 0.05 0.05 0.07 0.08 0.06 0.03 0.01 0.00 0.00 0.00 0.02 0.04 0.08 0.07 0.05 0.02 0.01 0.01 0.02 0.01 0.00 0.00 0.00 0.00
0.03 0.06 0.12 0.17 0.23 0.32 0.33 0.23 0.14 0.08 0.05 0.05 0.05 0.02 0.02 0.08 0.09 0.04 0.06 0.11 0.09 0.07 0.04 0.02 0.02 0.01 0.00 0.00 0.00 0.01 0.04 0.09 0.08 0.04 0.02 0.01 0.00 0.00 0.00 0.00 0.00 0.00 0.00
0.01 0.02 0.05 0.11 0.20 0.30 0.24 0.13 0.07 0.05 0.03 0.03 0.04 0.02 0.01 0.03 0.09 0.09 0.06 0.04 0.04 0.04 0.03 0.01 0.00 0.00 0.00 0.01 0.02 0.03 0.05 0.09 0.09 0.07 0.03 0.02 0.01 0.01 0.01 0.00 0.00 0.00 0.00
0.00 0.00 0.01 0.01 0.03 0.06 0.05 0.03 0.02 0.02 0.03 0.02 0.02 0.04 0.02 0.01 0.02 0.05 0.06 0.02 0.01 0.01 0.01 0.01 0.00 0.00 0.01 0.01 0.03 0.05 0.07 0.15 0.16 0.12 0.09 0.04 0.02 0.01 0.01 0.00 0.00 0.00 0.00
0.00 0.00 0.00 0.01 0.02 0.01 0.00 0.00 0.01 0.01 0.02 0.03 0.03 0.03 0.02 0.04 0.05 0.05 0.08 0.05 0.02 0.01 0.00 0.00 0.00 0.00 0.00 0.00 0.01 0.04 0.12 0.22 0.28 0.22 0.16 0.09 0.03 0.01 0.01 0.00 0.00 0.00 0.00
0.00 0.00 0.00 0.00 0.01 0.00 0.00 0.00 0.00 0.01 0.01 0.02 0.03 0.03 0.03 0.06 0.14 0.15 0.17 0.15 0.08 0.03 0.01 0.00 0.01 0.01 0.01 0.01 0.01 0.02 0.07 0.16 0.24 0.28 0.25 0.18 0.09 0.03 0.01 0.00 0.00 0.00 0.00
0.00 0.00 0.00 0.00 0.01 0.01 0.01 0.01 0.00 0.00 0.00 0.00 0.01 0.01 0.01 0.02 0.03 0.07 0.10 0.11 0.08 0.05 0.02 0.01 0.00 0.01 0.01 0.01 0.02 0.02 0.02 0.06 0.12 0.16 0.17 0.16 0.13 0.07 0.03 0.01 0.00 0.00 0.00
0.00 0.00 0.00 0.04 0.05 0.02 0.02 0.03 0.02 0.01 0.00 0.00 0.00 0.00 0.00 0.00 0.00 0.00 0.01 0.01 0.02 0.01 0.01 0.01 0.00 0.00 0.00 0.00 0.00 0.02 0.03 0.03 0.04 0.07 0.09 0.08 0.08 0.06 0.03 0.01 0.00 0.00 0.00
0.00 0.00 0.01 0.04 0.03 0.02 0.04 0.06 0.04 0.03 0.02 0.01 0.00 0.00 0.00 0.00 0.00 0.00 0.00 0.00 0.00 0.00 0.00 0.00 0.00 0.00 0.00 0.00 0.00 0.00 0.02 0.03 0.03 0.03 0.03 0.03 0.03 0.03 0.02 0.01 0.00 0.00 0.00
0.00 0.00 0.00 0.00 0.00 0.01 0.01 0.02 0.01 0.01 0.01 0.00 0.00 0.00 0.00 0.00 0.00 0.00 0.00 0.00 0.00 0.00 0.01 0.01 0.01 0.01 0.01 0.01 0.01 0.01 0.01 0.01 0.02 0.02 0.02 0.01 0.01 0.01 0.00 0.00 0.00 0.00 0.00
0.00 0.00 0.00 0.00 0.00 0.00 0.00 0.00 0.00 0.00 0.00 0.00 0.00 0.00 0.00 0.00 0.00 0.00 0.00 0.00 0.00 0.00 0.00 0.00 0.01 0.01 0.01 0.02 0.06 0.08 0.05 0.02 0.02 0.03 0.03 0.03 0.02 0.01 0.01 0.01 0.01 0.00 0.00
0.00 0.00 0.00 0.00 0.01 0.01 0.00 0.00 0.00 0.00 0.01 0.00 0.00 0.00 0.00 0.00 0.00 0.00 0.00 0.01 0.01 0.00 0.00 0.00 0.00 0.00 0.01 0.01 0.04 0.10 0.11 0.08 0.04 0.03 0.04 0.05 0.05 0.04 0.03 0.02 0.02 0.01 0.01
0.00 0.00 0.00 0.00 0.00 0.00 0.00 0.00 0.00 0.00 0.00 0.00 0.00 0.00 0.00 0.00 0.00 0.00 0.00 0.01 0.01 0.02 0.03 0.02 0.01 0.01 0.01 0.01 0.02 0.03 0.04 0.04 0.04 0.03 0.02 0.03 0.05 0.06 0.06 0.05 0.04 0.03 0.02
0.00 0.00 0.00 0.00 0.00 0.00 0.00 0.00 0.00 0.00 0.00 0.00 0.00 0.00 0.00 0.00 0.00 0.00 0.00 0.00 0.01 0.02 0.03 0.02 0.01 0.01 0.01 0.01 0.01 0.02 0.02 0.02 0.02 0.01 0.01 0.01 0.02 0.03 0.03 0.04 0.03 0.02 0.02
0.00 0.00 0.00 0.00 0.00 0.00 0.00 0.00 0.00 0.00 0.00 0.00 0.00 0.00 0.00 0.00 0.00 0.00 0.00 0.00 0.00 0.00 0.00 0.01 0.01 0.03 0.04 0.03 0.02 0.03 0.05 0.05 0.03 0.02 0.02 0.02 0.02 0.02 0.03 0.03 0.04 0.04 0.03
0.00 0.00 0.00 0.00 0.00 0.00 0.00 0.01 0.01 0.00 0.00 0.00 0.00 0.00 0.00 0.00 0.00 0.00 0.00 0.00 0.00 0.00 0.00 0.01 0.01 0.03 0.05 0.06 0.05 0.05 0.06 0.05 0.04 0.03 0.02 0.02 0.03 0.04 0.04 0.03 0.02 0.02 0.02
MSLP
1009.80 1010.06 1010.37 1010.70 1011.01 1011.28 1011.49 1011.64 1011.76 1011.87 1011.98 1012.11 1012.28 1012.47 1012.69 1012.91 1013.14 1013.36 1013.57 1013.78 1013.99 1014.21 1014.44 1014.70 1014.97 1015.28 1015.62 1016.00 1016.44 1016.93 1017.48 1018.09 1018.73 1019.40 1020.05 1020.65 1021.16 1021.56 1021.82 1021.95 1021.95 1021.85 1021.68
1009.56 1009.80 1010.08 1010.39 1010.68 1010.94 1011.15 1011.31 1011.43 1011.53 1011.63 1011.74 1011.87 1012.02 1012.19 1012.38 1012.59 1012.80 1013.01 1013.23 1013.45 1013.68 1013.91 1014.15 1014.40 1014.68 1014.99 1015.34 1015.76 1016.25 1016.82 1017.46 1018.17 1018.92 1019.66 1020.36 1020.97 1021.48 1021.85 1022.08 1022.19 1022.19 1022.12
1009.34 1009.57 1009.84 1010.13 1010.41 1010.66 1010.86 1011.02 1011.14 1011.24 1011.32 1011.40 1011.49 1011.60 1011.73 1011.87 1012.04 1012.23 1012.43 1012.65 1012.88 1013.11 1013.36 1013.60 1013.85 1014.12 1014.42 1014.76 1015.16 1015.65 1016.22 1016.88 1017.61 1018.39 1019.18 1019.95 1020.65 1021.24 1021.72 1022.07 1022.29 1022.41 1022.45
1009.11 1009.36 1009.63 1009.91 1010.18 1010.42 1010.62 1010.78 1010.90 1010.99 1011.06 1011.12 1011.18 1011.25 1011.34 1011.44 1011.56 1011.71 1011.89 1012.09 1012.32 1012.56 1012.82 1013.08 1013.35 1013.63 1013.93 1014.27 1014.66 1015.12 1015.67 1016.31 1017.03 1017.80 1018.60 1019.40 1020.15 1020.82 1021.39 1021.86 1022.21 1022.47 1022.64
1008.85 1009.12 1009.41 1009.70 1009.97 1010.20 1010.40 1010.57 1010.69 1010.79 1010.87 1010.93 1010.97 1011.01 1011.05 1011.11 1011.18 1011.29 1011.42 1011.60 1011.82 1012.06 1012.33 1012.61 1012.90 1013.20 1013.51 1013.85 1014.22 1014.66 1015.16 1015.75 1016.41 1017.14 1017.91 1018.70 1019.47 1020.19 1020.85 1021.43 1021.92 1022.32 1022.63
1008.55 1008.86 1009.17 1009.46 1009.73 1009.97 1010.17 1010.35 1010.50 1010.63 1010.72 1010.79 1010.84 1010.87 1010.89 1010.90 1010.93 1010.99 1011.08 1011.22 1011.41 1011.64 1011.92 1012.22 1012.53 1012.84 1013.17 1013.49 1013.85 1014.23 1014.67 1015.18 1015.76 1016.41 1017.11 1017.86 1018.63 1019.39 1020.12 1020.80 1021.41 1021.96 1022.43
1008.24 1008.56 1008.88 1009.17 1009.44 1009.69 1009.91 1010.11 1010.30 1010.46 1010.60 1010.70 1010.77 1010.81 1010.82 1010.81 1010.80 1010.80 1010.85 1010.95 1011.11 1011.33 1011.59 1011.90 1012.22 1012.55 1012.88 1013.20 1013.52 1013.85 1014.21 1014.62 1015.09 1015.64 1016.26 1016.95 1017.69 1018.46 1019.24 1020.01 1020.75 1021.43 1022.04
1007.93 1008.25 1008.56 1008.85 1009.11 1009.36 1009.60 1009.83 1010.06 1010.27 1010.46 1010.62 1010.72 1010.78 1010.79 1010.77 1010.73 1010.70 1010.71 1010.77 1010.90 1011.10 1011.36 1011.66 1012.00 1012.33 1012.66 1012.96 1013.24 1013.51 1013.79 1014.10 1014.47 1014.90 1015.43 1016.04 1016.74 1017.50 1018.31 1019.14 1019.97 1020.76 1021.50
1007.66 1007.97 1008.25 1008.52 1008.78 1009.02 1009.28 1009.53 1009.80 1010.06 1010.30 1010.50 1010.65 1010.74 1010.77 1010.75 1010.70 1010.64 1010.62 1010.65 1010.75 1010.94 1011.19 1011.50 1011.84 1012.18 1012.50 1012.78 1013.03 1013.25 1013.45 1013.67 1013.93 1014.26 1014.69 1015.23 1015.87 1016.61 1017.42 1018.29 1019.17 1020.04 1020.85
1007.48 1007.75 1008.00 1008.24 1008.47 1008.71 1008.97 1009.24 1009.53 1009.82 1010.10 1010.35 1010.54 1010.65 1010.70 1010.68 1010.63 1010.57 1010.54 1010.56 1010.65 1010.83 1011.09 1011.40 1011.75 1012.09 1012.42 1012.69 1012.91 1013.08 1013.22 1013.36 1013.54 1013.78 1014.13 1014.59 1015.17 1015.86 1016.65 1017.51 1018.41 1019.31 1020.17
1007.41 1007.64 1007.85 1008.05 1008.26 1008.48 1008.72 1008.99 1009.29 1009.60 1009.90 1010.16 1010.37 1010.50 1010.57 1010.56 1010.52 1010.47 1010.44 1010.47 1010.57 1010.76 1011.03 1011.36 1011.73 1012.08 1012.41 1012.68 1012.88 1013.02 1013.12 1013.21 1013.32 1013.50 1013.77 1014.16 1014.67 1015.31 1016.06 1016.88 1017.75 1018.63 1019.48
1007.46 1007.64 1007.81 1007.98 1008.16 1008.35 1008.57 1008.83 1009.11 1009.41 1009.70 1009.96 1010.17 1010.31 1010.37 1010.38 1010.36 1010.32 1010.32 1010.37 1010.51 1010.73 1011.03 1011.38 1011.76 1012.14 1012.48 1012.75 1012.94 1013.07 1013.14 1013.20 1013.27 1013.40 1013.61 1013.94 1014.40 1014.97 1015.66 1016.42 1017.23 1018.05 1018.85
1007.61 1007.76 1007.90 1008.03 1008.18 1008.34 1008.54 1008.76 1009.01 1009.28 1009.54 1009.77 1009.96 1010.09 1010.15 1010.17 1010.17 1010.16 1010.20 1010.29 1010.47 1010.73 1011.06 1011.45 1011.86 1012.25 1012.60 1012.87 1013.07 1013.19 1013.25 1013.29 1013.34 1013.43 1013.61 1013.90 1014.30 1014.81 1015.42 1016.10 1016.83 1017.57 1018.29
1007.81 1007.94 1008.06 1008.18 1008.30 1008.44 1008.60 1008.79 1009.00 1009.22 1009.43 1009.63 1009.78 1009.88 1009.94 1009.97 1009.99 1010.02 1010.09 1010.24 1010.46 1010.77 1011.14 1011.55 1011.98 1012.39 1012.74 1013.02 1013.21 1013.32 1013.38 1013.42 1013.46 1013.54 1013.70 1013.95 1014.31 1014.77 1015.31 1015.91 1016.55 1017.19 1017.82
1008.02 1008.14 1008.25 1008.36 1008.47 1008.59 1008.72 1008.88 1009.05 1009.22 1009.39 1009.53 1009.65 1009.73 1009.78 1009.82 1009.86 1009.92 1010.04 1010.24 1010.50 1010.85 1011.25 1011.68 1012.11 1012.52 1012.86 1013.13 1013.31 1013.42 1013.48 1013.51 1013.55 1013.63 1013.78 1014.02 1014.35 1014.77 1015.26 1015.79 1016.35 1016.92 1017.46
1008.18 1008.30 1008.42 1008.52 1008.63 1008.74 1008.86 1008.99 1009.13 1009.27 1009.39 1009.50 1009.59 1009.65 1009.70 1009.74 1009.80 1009.91 1010.07 1010.29 1010.59 1010.96 1011.37 1011.79 1012.21 1012.59 1012.91 1013.15 1013.32 1013.41 1013.47 1013.50 1013.55 1013.64 1013.80 1014.04 1014.36 1014.76 1015.21 1015.71 1016.21 1016.72 1017.20
1008.24 1008.38 1008.51 1008.63 1008.74 1008.86 1008.98 1009.10 1009.22 1009.33 1009.43 1009.52 1009.59 1009.64 1009.69 1009.75 1009.84 1009.97 1010.15 1010.40 1010.71 1011.07 1011.47 1011.87 1012.25 1012.59 1012.86 1013.07 1013.20 1013.28 1013.33 1013.37 1013.43 1013.54 1013.72 1013.97 1014.30 1014.70 1015.14 1015.61 1016.09 1016.56 1017.00
1008.22 1008.37 1008.51 1008.65 1008.78 1008.91 1009.04 1009.16 1009.28 1009.39 1009.49 1009.57 1009.64 1009.70 1009.76 1009.84 1009.94 1010.09 1010.28 1010.53 1010.83 1011.17 1011.52 1011.87 1012.19 1012.47 1012.69 1012.85 1012.95 1013.02 1013.06 1013.11 1013.20 1013.33 1013.54 1013.82 1014.17 1014.57 1015.02 1015.49 1015.95 1016.41 1016.84
1008.14 1008.30 1008.45 1008.60 1008.75 1008.90 1009.04 1009.19 1009.32 1009.44 1009.55 1009.64 1009.72 1009.80 1009.88 1009.97 1010.08 1010.23 1010.43 1010.66 1010.92 1011.21 1011.50 1011.79 1012.04 1012.25 1012.41 1012.53 1012.60 1012.65 1012.70 1012.77 1012.88 1013.05 1013.29 1013.60 1013.97 1014.39 1014.85 1015.31 1015.78 1016.23 1016.64
1008.03 1008.20 1008.36 1008.53 1008.70 1008.86 1009.02 1009.18 1009.33 1009.47 1009.60 1009.71 1009.81 1009.90 1010.00 1010.10 1010.22 1010.37 1010.54 1010.73 1010.95 1011.17 1011.40 1011.60 1011.78 1011.93 1012.04 1012.11 1012.17 1012.22 1012.29 1012.39 1012.53 1012.74 1013.01 1013.35 1013.74 1014.17 1014.62 1015.09 1015.54 1015.97 1016.38
1007.95 1008.13 1008.30 1008.48 1008.66 1008.83 1009.01 1009.18 1009.34 1009.50 1009.64 1009.77 1009.89 1009.99 1010.10 1010.21 1010.32 1010.45 1010.59 1010.74 1010.89 1011.05 1011.20 1011.33 1011.44 1011.53 1011.60 1011.66 1011.71 1011.77 1011.87 1012.00 1012.19 1012.43 1012.73 1013.08 1013.48 1013.91 1014.35 1014.79 1015.21 1015.62 1016.00
1007.94 1008.13 1008.31 1008.50 1008.67 1008.85 1009.03 1009.20 1009.37 1009.52 1009.67 1009.81 1009.94 1010.05 1010.16 1010.26 1010.37 1010.47 1010.57 1010.66 1010.76 1010.85 1010.92 1010.99 1011.05 1011.09 1011.14 1011.18 1011.25 1011.34 1011.46 1011.64 1011.86 1012.13 1012.45 1012.81 1013.20 1013.60 1014.01 1014.41 1014.79 1015.15 1015.49
1008.03 1008.23 1008.41 1008.60 1008.77 1008.94 1009.10 1009.26 1009.42 1009.56 1009.70 1009.83 1009.96 1010.07 1010.17 1010.26 1010.34 1010.41 1010.47 1010.52 1010.56 1010.59 1010.60 1010.62 1010.63 1010.65 1010.67 1010.73 1010.81 1010.92 1011.08 1011.29 1011.54 1011.83 1012.16 1012.51 1012.87 1013.23 1013.59 1013.93 1014.25 1014.56 1014.84
1008.19 1008.40 1008.60 1008.78 1008.94 1009.09 1009.23 1009.37 1009.49 1009.61 1009.73 1009.85 1009.95 1010.05 1010.14 1010.21 1010.27 1010.31 1010.33 1010.34 1010.33 1010.31 1010.28 1010.25 1010.23 1010.22 1010.24 1010.29 1010.39 1010.53 1010.71 1010.94 1011.20 1011.50 1011.81 1012.14 1012.46 1012.77 1013.07 1013.35 1013.61 1013.86 1014.10
1008.39 1008.63 1008.83 1009.00 1009.15 1009.28 1009.39 1009.49 1009.59 1009.68 1009.77 1009.85 1009.94 1010.02 1010.09 1010.14 1010.18 1010.20 1010.19 1010.17 1010.12 1010.06 1009.99 1009.93 1009.88 1009.85 1009.86 1009.91 1010.00 1010.14 1010.33 1010.56 1010.82 1011.10 1011.39 1011.68 1011.96 1012.22 1012.46 1012.69 1012.90 1013.10 1013.30
1008.60 1008.85 1009.06 1009.23 1009.37 1009.48 1009.56 1009.63 1009.69 1009.75 1009.81 1009.87 1009.93 1010.00 1010.05 1010.10 1010.12 1010.13 1010.10 1010.06 1009.98 1009.89 1009.80 1009.70 1009.62 1009.57 1009.55 1009.58 1009.65 1009.77 1009.94 1010.14 1010.37 1010.62 1010.87 1011.12 1011.36 1011.58 1011.78 1011.97 1012.15 1012.34 1012.53
Thickness
5693 5690 5688 5684 5681 5678 5677 5677 5677 5676 5676 5675 5675 5674 5674 5675 5676 5677 5677 5678 5678 5679 5679 5679 5681 5682 5681 5682 5682 5680 5677 5673 5665 5661 5660 5657 5654 5653 5651 5650 5649 5647 5648
5692 5689 5685 5682 5678 5674 5672 5672 5673 5672 5672 5671 5671 5671 5672 5674 5676 5676 5677 5677 5677 5676 5676 5676 5678 5679 5677 5678 5678 5677 5674 5672 5667 5659 5656 5653 5651 5649 5647 5645 5642 5639 5640
5689 5685 5682 5679 5675 5672 5671 5671 5671 5670 5669 5669 5669 5669 5671 5674 5675 5675 5675 5675 5675 5675 5676 5676 5677 5676 5674 5674 5675 5675 5673 5671 5667 5661 5656 5652 5648 5644 5642 5639 5635 5631 5633
5684 5680 5677 5675 5673 5671 5669 5668 5668 5668 5667 5667 5668 5669 5670 5671 5672 5673 5672 5672 5671 5673 5675 5676 5677 5676 5675 5674 5673 5674 5672 5668 5664 5660 5656 5650 5645 5641 5638 5633 5627 5625 5627
5679 5675 5672 5671 5669 5667 5664 5663 5663 5661 5661 5661 5662 5663 5665 5666 5668 5669 5669 5669 5668 5669 5672 5675 5676 5676 5676 5675 5674 5672 5671 5666 5661 5656 5652 5647 5643 5640 5637 5632 5626 5621 5621
5674 5671 5669 5665 5663 5661 5659 5658 5656 5656 5655 5655 5656 5657 5659 5662 5665 5667 5667 5666 5666 5667 5669 5672 5674 5674 5675 5675 5674 5672 5672 5668 5661 5656 5651 5648 5646 5644 5637 5632 5625 5619 5618
5672 5669 5664 5660 5658 5656 5654 5651 5649 5649 5649 5649 5650 5651 5652 5655 5659 5662 5664 5664 5664 5665 5666 5667 5670 5672 5673 5672 5672 5671 5670 5670 5668 5664 5656 5653 5649 5647 5641 5632 5628 5624 5622
5670 5666 5662 5657 5653 5651 5647 5644 5643 5642 5641 5642 5643 5645 5646 5649 5653 5657 5659 5659 5659 5661 5662 5662 5663 5665 5667 5667 5666 5666 5666 5666 5665 5664 5662 5660 5657 5653 5648 5641 5632 5624 5620
5666 5662 5659 5654 5648 5645 5641 5638 5636 5635 5635 5636 5638 5639 5640 5643 5647 5650 5652 5651 5652 5653 5654 5655 5655 5656 5660 5661 5658 5658 5658 5659 5659 5659 5659 5657 5654 5650 5645 5636 5627 5621 5614
5661 5658 5655 5651 5646 5641 5636 5632 5630 5629 5629 5630 5632 5634 5636 5638 5641 5644 5645 5644 5643 5644 5645 5646 5647 5650 5654 5654 5653 5651 5651 5653 5654 5652 5650 5650 5648 5646 5643 5640 5635 5626 5614
5652 5650 5646 5642 5638 5635 5629 5625 5623 5622 5622 5623 5626 5629 5631 5634 5636 5638 5639 5637 5636 5636 5636 5636 5639 5643 5647 5648 5647 5646 5648 5648 5647 5647 5645 5643 5642 5641 5640 5638 5636 5631 5621
5641 5638 5634 5630 5627 5624 5620 5617 5615 5614 5613 5616 5619 5621 5625 5629 5631 5633 5634 5634 5633 5631 5631 5631 5633 5637 5639 5640 5639 5638 5638 5638 5638 5638 5639 5639 5638 5638 5638 5636 5633 5629 5626
5629 5625 5622 5619 5615 5612 5609 5607 5606 5606 5606 5609 5611 5614 5617 5622 5625 5628 5630 5630 5629 5627 5627 5627 5629 5631 5632 5631 5630 5630 5630 5629 5630 5631 5634 5637 5638 5636 5633 5629 5626 5622 5619
5622 5616 5612 5607 5602 5599 5597 5597 5597 5598 5600 5603 5605 5608 5611 5615 5618 5621 5623 5624 5624 5622 5621 5621 5622 5622 5622 5622 5621 5621 5621 5622 5624 5627 5629 5630 5629 5627 5625 5623 5618 5614 5612
5616 5611 5605 5599 5593 5588 5586 5587 5590 5594 5598 5600 5603 5605 5607 5610 5614 5618 5619 5619 5619 5617 5614 5612 5611 5611 5611 5610 5611 5612 5613 5613 5616 5620 5622 5621 5621 5621 5618 5616 5613 5610 5608
5613 5607 5602 5596 5590 5586 5583 5583 5586 5591 5597 5601 5603 5605 5607 5611 5615 5616 5616 5616 5614 5612 5609 5606 5605 5604 5604 5603 5603 5604 5605 5606 5609 5612 5614 5613 5612 5612 5610 5608 5608 5606 5605
5613 5608 5604 5599 5595 5592 5590 5588 5589 5590 5594 5598 5601 5603 5605 5608 5612 5613 5612 5610 5607 5606 5602 5601 5600 5600 5599 5599 5598 5598 5599 5601 5603 5605 5605 5604 5602 5601 5601 5601 5601 5600 5598
5614 5610 5607 5604 5601 5598 5596 5595 5594 5594 5594 5595 5597 5599 5601 5603 5604 5605 5605 5601 5598 5596 5594 5593 5592 5591 5591 5591 5592 5593 5594 5595 5596 5598 5597 5596 5594 5594 5595 5595 5596 5595 5593
5614 5611 5610 5608 5605 5603 5601 5600 5599 5598 5596 5595 5594 5594 5595 5596 5596 5596 5596 5595 5592 5589 5588 5586 5585 5584 5583 5584 5585 5587 5588 5590 5591 5592 5592 5592 5592 5591 5591 5591 5591 5590 5588
5616 5615 5612 5610 5607 5605 5604 5603 5601 5599 5597 5594 5593 5592 5592 5591 5591 5590 5590 5590 5589 5586 5584 5582 5580 5579 5579 5579 5580 5581 5582 5584 5586 5587 5588 5588 5588 5588 5588 5587 5586 5585 5584
5616 5615 5614 5610 5608 5606 5605 5604 5602 5599 5597 5594 5593 5592 5591 5589 5588 5588 5588 5587 5586 5584 5581 5578 5576 5574 5574 5573 5574 5575 5577 5580 5581 5582 5582 5582 5583 5583 5583 5582 5581 5579 5579
5618 5615 5612 5610 5609 5607 5605 5603 5601 5599 5597 5594 5592 5591 5590 5588 5587 5586 5585 5585 5583 5581 5578 5575 5572 5571 5570 5570 5571 5572 5573 5575 5577 5578 5578 5578 5578 5577 5577 5576 5575 5574 5573
5620 5616 5613 5611 5609 5607 5603 5601 5599 5597 5596 5594 5592 5590 5589 5588 5587 5585 5584 5583 5581 5579 5576 5574 5572 5571 5571 5571 5571 5572 5573 5575 5576 5577 5576 5575 5574 5573 5573 5572 5571 5569 5567
5621 5618 5615 5612 5609 5606 5603 5601 5599 5597 5596 5594 5592 5590 5588 5587 5586 5585 5583 5582 5580 5578 5576 5574 5573 5573 5572 5572 5572 5572 5573 5574 5575 5575 5574 5573 5572 5571 5570 5568 5567 5565 5564
5623 5620 5616 5613 5610 5607 5604 5602 5599 5597 5596 5594 5592 5590 5588 5587 5585 5584 5583 5581 5579 5577 5575 5574 5573 5573 5573 5573 5573 5573 5573 5573 5572 5572 5571 5570 5569 5568 5567 5565 5563 5561 5560
5626 5622 5618 5614 5611 5608 5605 5603 5601 5599 5596 5595 5593 5592 5590 5588 5586 5584 5583 5581 5579 5576 5575 5574 5573 5573 5574 5574 5574 5574 5573 5573 5571 5570 5569 5568 5568 5566 5565 5564 5563 5561 5559